Track PROMETHEUS 2-1 now! 10-day predictions PROMETHEUS 2-1 is classified as:
1 41854U 16067G 25184.05015807 .00039948 00000-0 70547-3 0 9997 2 41854 98.0746 40.1737 0007253 155.6036 204.5558 15.50237255474046